This is the latest recevied weather packets stored in our database for station/object OE9SAU-10. If no packets are shown the sender has not sent any weather packets the latest 10 day(s).
| Time | Temp. | Humidity | Pressure | Rain* | Wind** | Luminosity | Snow |
|---|---|---|---|---|---|---|---|
| 1777132951 | 26.11° C | 24% | 1018.9 hPa | - | - | - | - |
| 1777132050 | 26.11° C | 24% | 1019 hPa | - | - | - | - |
| 1777131150 | 26.11° C | 25% | 1019 hPa | - | - | - | - |
| 1777130250 | 26.11° C | 25% | 1019 hPa | - | - | - | - |
| 1777129350 | 26.11° C | 25% | 1019 hPa | - | - | - | - |
| 1777128450 | 26.11° C | 25% | 1019 hPa | - | - | - | - |
| 1777127550 | 25.56° C | 25% | 1019 hPa | - | - | - | - |
| 1777126650 | 25.56° C | 25% | 1019.1 hPa | - | - | - | - |
| 1777125750 | 26.11° C | 26% | 1019.1 hPa | - | - | - | - |
| 1777124849 | 25.56° C | 26% | 1019.1 hPa | - | - | - | - |
| 1777123949 | 25° C | 26% | 1019.1 hPa | - | - | - | - |
| 1777123049 | 25° C | 26% | 1019.3 hPa | - | - | - | - |
| 1777122149 | 24.44° C | 24% | 1019.5 hPa | - | - | - | - |
| 1777121249 | 24.44° C | 27% | 1019.5 hPa | - | - | - | - |
| 1777120349 | 24.44° C | 25% | 1019.6 hPa | - | - | - | - |
| 1777119449 | 23.89° C | 27% | 1019.7 hPa | - | - | - | - |
| 1777118549 | 23.33° C | 25% | 1019.8 hPa | - | - | - | - |
| 1777117649 | 22.78° C | 26% | 1019.9 hPa | - | - | - | - |
| 1777116749 | 23.33° C | 28% | 1020.1 hPa | - | - | - | - |
| 1777115849 | 22.78° C | 30% | 1020.2 hPa | - | - | - | - |
| 1777114949 | 22.22° C | 31% | 1020.3 hPa | - | - | - | - |
| 1777114049 | 21.67° C | 30% | 1020.2 hPa | - | - | - | - |
| 1777113149 | 21.11° C | 31% | 1020.5 hPa | - | - | - | - |
| 1777112249 | 21.11° C | 33% | 1020.7 hPa | - | - | - | - |
| 1777111349 | 20° C | 32% | 1020.7 hPa | - | - | - | - |
* Rain since midnight (hover to see other rain measurements)
** Current wind speed in m/s (hover to see current wind gust speed)